Location: Damada
(14.7329°N, 3.1761°W)
Time: 21:54:53
(UTC+00:00)

Daily predictions for brighter satellites

Satellite Brightness Start Highest point End
(mag) Time Altitude Azimuth Time Altitude Azimuth Time Altitude Azimuth
NOSS 3-1 (A) 3.0 18:27:55 10° SSW 18:33:04 73° ESE 18:38:29 10° NNE
Lacrosse 4 Rocket 4.2 18:32:10 10° WSW 18:34:58 18° WNW 18:37:48 10° NNW
STARLINK-1060 3.7 18:31:54 10° SW 18:36:01 82° NW 18:40:08 10° NNE
Ariane H10+ 2.7 18:37:43 10° SSW 18:38:07 10° S 18:38:30 10° S
STARLINK-1047 3.9 18:34:32 10° SW 18:38:40 72° NW 18:42:49 10° NNE
STARLINK-1027 4.5 18:35:40 10° SW 18:39:48 53° NW 18:43:57 10° NNE
STARLINK-1030 3.9 18:36:52 10° SW 18:40:57 71° NW 18:45:04 10° NNE
Okean-O 2.8 18:38:03 10° S 18:42:28 78° WSW 18:46:53 10° NNW
STARLINK-1031 4.2 18:38:48 10° SW 18:42:39 54° NW 18:46:30 10° NNE
Cosmos 1633 4.2 18:39:32 10° SSW 18:42:51 39° W 18:46:12 10° NNW
Cosmos 1862 3.3 18:38:55 10° S 18:42:56 84° E 18:46:56 10° N
Cosmos 968 Rocket 4.1 18:40:00 10° N 18:44:41 34° ENE 18:49:24 10° SE
ADEOS Rocket 3.6 18:37:12 10° NNE 18:44:58 74° ESE 18:52:21 10° S
STARLINK-1020 4.1 18:41:53 10° SW 18:45:57 60° NW 18:50:01 10° NNE
[s.n.71220] 3.4 18:46:29 10° N 18:48:51 29° NE 18:51:22 10° ESE
[s.n.71212] 3.4 18:46:30 10° N 18:48:51 29° NE 18:51:22 10° ESE
[s.n.71206] 3.4 18:46:30 10° N 18:48:52 29° NE 18:51:23 10° ESE
[s.n.71218] 3.4 18:46:30 10° N 18:48:53 29° NE 18:51:24 10° ESE
[s.n.71105] 3.4 18:46:31 10° N 18:48:53 29° NE 18:51:24 10° ESE
[s.n.71227] 3.4 18:46:31 10° N 18:48:54 29° NE 18:51:24 10° ESE
[s.n.71254] 3.4 18:46:32 10° N 18:48:54 29° NE 18:51:25 10° ESE
[s.n.71247] 3.4 18:46:32 10° N 18:48:54 29° NE 18:51:25 10° ESE
[s.n.71226] 3.4 18:46:32 10° N 18:48:55 29° NE 18:51:25 10° ESE
[s.n.71215] 3.4 18:46:32 10° N 18:48:55 29° NE 18:51:25 10° ESE
[s.n.71235] 3.4 18:46:33 10° N 18:48:55 29° NE 18:51:26 10° ESE
[s.n.71231] 3.4 18:46:33 10° N 18:48:55 29° NE 18:51:26 10° ESE
[s.n.71271] 3.4 18:46:33 10° N 18:48:56 29° NE 18:51:27 10° ESE
[s.n.71232] 3.4 18:46:33 10° N 18:48:56 29° NE 18:51:27 10° ESE
[s.n.71208] 3.4 18:46:33 10° N 18:48:56 29° NE 18:51:27 10° ESE
[s.n.71217] 3.4 18:46:33 10° N 18:48:56 29° NE 18:51:27 10° ESE
[s.n.71154] 3.4 18:46:34 10° N 18:48:56 29° NE 18:51:27 10° ESE
[s.n.71197] 3.4 18:46:34 10° N 18:48:56 29° NE 18:51:27 10° ESE
[s.n.71229] 3.4 18:46:34 10° N 18:48:56 29° NE 18:51:27 10° ESE
[s.n.71187] 3.4 18:46:34 10° N 18:48:57 29° NE 18:51:28 10° ESE
[s.n.71198] 3.4 18:46:34 10° N 18:48:57 29° NE 18:51:28 10° ESE
[s.n.71189] 3.4 18:46:35 10° N 18:48:57 29° NE 18:51:29 10° ESE
[s.n.71211] 3.4 18:46:35 10° N 18:48:57 29° NE 18:51:29 10° ESE
[s.n.71210] 3.4 18:46:35 10° N 18:48:57 29° NE 18:51:29 10° ESE
[s.n.71188] 3.4 18:46:36 10° N 18:48:58 29° NE 18:51:29 10° ESE
[s.n.71219] 3.4 18:46:36 10° N 18:48:59 29° NE 18:51:29 10° ESE
[s.n.71199] 3.4 18:46:36 10° N 18:48:59 29° NE 18:51:29 10° ESE
[s.n.71221] 3.4 18:46:36 10° N 18:48:59 29° NE 18:51:29 10° ESE
[s.n.71245] 3.4 18:46:36 10° N 18:48:59 29° NE 18:51:30 10° ESE
[s.n.71222] 3.4 18:46:36 10° N 18:48:59 29° NE 18:51:30 10° ESE
[s.n.71191] 3.4 18:46:36 10° N 18:48:59 29° NE 18:51:30 10° ESE
[s.n.71204] 3.4 18:46:37 10° N 18:48:59 29° NE 18:51:31 10° ESE
[s.n.71233] 3.4 18:46:37 10° N 18:49:00 29° NE 18:51:31 10° ESE
[s.n.71214] 3.4 18:46:37 10° N 18:49:00 29° NE 18:51:31 10° ESE
[s.n.71238] 3.4 18:46:37 10° N 18:49:00 29° NE 18:51:31 10° ESE
[s.n.71243] 3.4 18:46:37 10° N 18:49:00 29° NE 18:51:31 10° ESE
[s.n.71246] 3.4 18:46:38 10° N 18:49:00 29° NE 18:51:32 10° ESE
[s.n.71203] 3.4 18:46:38 10° N 18:49:00 29° NE 18:51:32 10° ESE
[s.n.71239] 3.4 18:46:38 10° N 18:49:00 29° NE 18:51:32 10° ESE
[s.n.71202] 3.4 18:46:38 10° N 18:49:00 29° NE 18:51:32 10° ESE
[s.n.71216] 3.4 18:46:38 10° N 18:49:01 29° NE 18:51:32 10° ESE
[s.n.71241] 3.4 18:46:39 10° N 18:49:01 29° NE 18:51:32 10° ESE
[s.n.71240] 3.4 18:46:39 10° N 18:49:01 29° NE 18:51:33 10° ESE
[s.n.71228] 3.4 18:46:39 10° N 18:49:01 29° NE 18:51:33 10° ESE
[s.n.71201] 3.4 18:46:40 10° N 18:49:02 29° NE 18:51:34 10° ESE
[s.n.71225] 3.4 18:46:40 10° N 18:49:02 29° NE 18:51:34 10° ESE
[s.n.71200] 3.4 18:46:40 10° N 18:49:03 29° NE 18:51:34 10° ESE
[s.n.71230] 3.4 18:46:41 10° N 18:49:03 29° NE 18:51:35 10° ESE
[s.n.71236] 3.4 18:46:41 10° N 18:49:04 29° NE 18:51:35 10° ESE
[s.n.71269] 3.4 18:46:41 10° N 18:49:04 29° NE 18:51:35 10° ESE
[s.n.71244] 3.4 18:46:42 10° N 18:49:05 29° NE 18:51:36 10° ESE
[s.n.71138] 3.4 18:46:42 10° N 18:49:05 29° NE 18:51:36 10° ESE
[s.n.71192] 3.4 18:46:42 10° N 18:49:05 29° NE 18:51:36 10° ESE
[s.n.71143] 3.4 18:46:43 10° N 18:49:05 29° NE 18:51:37 10° ESE
[s.n.71224] 3.4 18:46:43 10° N 18:49:06 29° NE 18:51:37 10° ESE
[s.n.71237] 3.4 18:46:44 10° N 18:49:07 29° NE 18:51:38 10° ESE
[s.n.71270] 3.4 18:46:44 10° N 18:49:07 30° NE 18:51:39 10° ESE
[s.n.71205] 3.4 18:46:51 10° N 18:49:14 30° NE 18:51:47 10° ESE
[s.n.71234] 3.4 18:46:51 10° N 18:49:15 30° NE 18:51:47 10° ESE
Intelsat 5-2 Rocket 4.1 18:48:08 10° NNW 18:49:59 18° NNE 18:52:29 10° ENE
Cosmos 1782 2.7 18:46:36 10° N 18:50:35 78° E 18:54:32 10° S
STARLINK-1052 4.4 18:46:53 10° SW 18:50:53 52° NW 18:54:54 10° NNE
CZ-4 R/B 4.4 18:50:12 10° SSE 18:54:18 90° ESE 18:58:25 10° NNW
NOSS 2-3 (C) 3.6 18:55:07 10° SSW 18:59:26 78° WNW 19:03:40 10° NNE
Cosmos 1943 Rocket 2.7 18:53:54 10° SSW 18:59:28 65° WNW 19:05:00 10° N
Cosmos 1503 Rocket 4.2 18:59:57 10° N 19:04:56 45° ENE 19:09:52 10° SSE
Cosmos 1346 Rocket 3.5 19:04:36 10° SSE 19:08:14 32° E 19:11:49 10° NNE
CZ-2D R/B 3.2 19:04:32 10° SSE 19:08:21 65° ENE 19:12:11 10° N
CZ-4 R/B 2.0 19:05:23 10° S 19:09:31 64° W 19:13:41 10° NNW
Meteor 2-6 Rocket 4.0 19:05:39 10° N 19:11:04 69° E 19:16:25 10° SSE
STARLINK-67 3.4 19:09:39 10° NW 19:12:02 45° SW 19:14:27 10° SSE
Cosmos 1340 2.7 19:09:07 10° S 19:12:45 50° E 19:16:24 10° NNE
Cosmos 1470 Rocket 3.5 19:08:35 10° S 19:12:47 55° E 19:17:01 10° NNE
Cosmos 1939 Rocket 2.8 19:12:47 10° S 19:16:50 89° W 19:20:55 10° NNW
STARLINK-1039 4.4 19:13:51 10° S 19:17:33 32° ESE 19:18:40 27° E
Hubble Space Telescope 1.8 19:13:56 10° W 19:17:48 38° NNW 19:20:14 19° NE
GPS 2-15 Rocket1 3.4 19:14:15 10° WNW 19:18:50 52° N 19:21:09 27° ENE
STARLINK-1045 4.2 19:18:41 10° SSW 19:22:30 37° ESE 19:23:27 32° E
Cosmos 2369 Rocket 3.2 19:20:46 10° SW 19:26:06 46° WNW 19:31:30 10° N
STARLINK-1050 3.9 19:23:35 10° SSW 19:27:32 45° SE 19:28:23 39° E
Cosmos 1816 Rocket 4.5 19:24:26 10° N 19:30:49 88° E 19:37:10 10° S
STARLINK-1055 3.7 19:28:29 10° SSW 19:32:30 52° SE 19:33:09 46° E
Intelsat 5-1 Rocket 4.0 19:27:47 10° WNW 19:32:57 51° N 19:40:32 24° ENE
Cosmos 1812 2.6 19:30:27 10° N 19:34:14 58° E 19:38:01 10° SSE
Gbstr 26 Del rocket 3.3 19:30:45 10° SW 19:34:26 55° NW 19:36:34 25° NNE
STARLINK-1022 3.6 19:33:24 10° SSW 19:37:28 61° SE 19:37:57 56° E
Cosmos 1707 Rocket 4.0 19:34:53 10° NNW 19:39:17 65° W 19:43:41 10° S
HJ-1C 3.2 19:37:28 10° S 19:40:47 90° ESE 19:44:05 10° N
IRS-1A Rocket 4.3 19:36:30 10° SSE 19:41:55 51° ENE 19:47:14 10° N
H-2A R/B 4.0 19:45:44 15° NNE 19:45:44 15° NNE 19:46:39 10° NNE
STARLINK-1042 3.4 19:38:18 10° SSW 19:42:24 71° SE 19:42:43 67° E
Cosmos 1656 Rocket 3.6 19:37:36 10° SSW 19:43:01 84° WNW 19:47:57 13° NNE
Tsikada Rocket 4.2 19:39:19 10° N 19:45:41 75° W 19:52:05 10° S
Meteor 1-20 Rocket 4.0 19:40:33 10° S 19:45:59 72° E 19:51:10 11° NNE
CZ-2C R/B 3.6 19:43:31 20° NNE 19:46:45 82° E 19:51:30 10° S
STARLINK-1056 3.4 19:43:14 10° SSW 19:47:22 83° ESE 19:47:28 81° E
Meteor 1-27 Rocket 3.6 19:44:10 10° N 19:49:45 80° E 19:55:26 10° S
Cosmos 2082 Rocket 3.6 19:44:39 10° NW 19:49:51 39° WSW 19:55:05 10° S
Lacrosse 5 2.8 19:46:35 10° S 19:49:57 31° SSE 19:49:57 31° SSE
STARLINK-1054 3.5 19:48:13 10° SW 19:52:16 84° W 19:52:16 84° W
STARLINK-1062 3.8 19:53:11 10° SW 19:57:02 71° W 19:57:02 71° W
Centaur AC-112 3.7 19:53:52 10° NW 19:57:18 49° NNE 19:57:58 47° NE
Ariane Rocket 2.9 19:53:02 10° SSE 19:58:07 88° ENE 20:03:13 10° NNW
STARLINK-1053 4.1 19:58:10 10° SW 20:01:48 59° W 20:01:48 59° W
SEDSat Delta rocket 3.9 20:00:52 10° NW 20:03:38 39° NW 20:03:38 39° NW
SJ-11-01 4.4 20:01:26 10° S 20:06:06 73° WSW 20:10:45 10° NNW
STARLINK-1061 4.4 20:03:12 10° SW 20:06:37 49° W 20:06:37 49° W
Sakura Rocket 4.3 20:08:23 10° W 20:13:39 37° SW 20:14:03 37° SSW
Orbus 21S 4.2 20:21:18 10° W 20:25:20 58° N 20:26:31 53° NNE
Centaur D AC-28 4.4 20:42:22 10° NW 20:43:58 14° NNW 20:43:58 14° NNW
Centaur D-1AR AC-39 4.5 21:12:04 10° WNW 21:15:50 23° WNW 21:15:50 23° WNW
